Tracking 19245 objects as of 18-Aug-2018
HD Live streaming from Space Station
objects crossing your sky now

NNSS 19 (TRANSIT 19)

Track NNSS 19 (TRANSIT 19) now!
10-day predictions
NNSS 19 (TRANSIT 19) is classified as:


NORAD ID: 4507
Int'l Code: 1970-067A
Perigee: 947.3 km
Apogee: 1,206.4 km
Inclination: 89.8 °
Period: 106.6 minutes
Semi major axis: 7447 km
RCS: 1.5637 m2 (large)
Launch date: August 27, 1970
Source: United States (US)
Launch site: AIR FORCE WESTERN TEST RANGE (AFWTR)
aabbcc
Your satellite tracking list
Your tracking list is empty




NASA's NSSDC Master Catalog

Two Line Element Set (TLE):
1 04507U 70067A   18229.13008042  .00000001  00000-0 -14746-4 0  9994
2 04507  89.8455 255.9408 0173927 117.4427 244.4532 13.50691291361512
Source of the keplerian elements: AFSPC